KR8E Weather Reports


time (UTC)temp
C
wind
direction
speed
KPH
gust
KPH
rain 1hr
cm
rain 24hr
cm
rain mn
cm
humidity
%
barometer
mb
20260508100016 3 0.0 0.0 0.00 0.00 0.00 99 1014.9
20260508095032 3 0.0 0.0 0.00 0.00 0.00 99 1014.9
20260508094017 3 0.0 0.0 0.00 0.00 0.00 99 1014.9
20260508093021 4 0.0 0.0 0.00 0.00 0.00 99 1015.0
20260508092044 4 0.0 0.0 0.00 0.00 0.00 99 1015.0
20260508091028 5 0.0 0.0 0.00 0.00 0.00 99 1015.0
20260508090031 5 0.0 0.0 0.00 0.00 0.00 99 1015.0
20260508085017 5 0.0 0.0 0.00 0.00 0.00 99 1014.9
20260508084021 5 0.0 0.0 0.00 0.00 0.00 99 1015.0
20260508083044 5 0.0 0.0 0.00 0.00 0.00 99 1015.0
20260508082028 5 0.0 0.0 0.00 0.00 0.00 98 1015.0
20260508081032 5 0.0 0.0 0.00 0.00 0.00 98 1015.0
20260508080057 5 0.0 0.0 0.00 0.00 0.00 98 1015.1
20260508075020 5 0.0 0.0 0.00 0.00 0.00 98 1015.2
20260508074024 5 0.0 0.0 0.00 0.00 0.00 98 1015.4
20260508073028 5 0.0 0.0 0.00 0.00 0.00 98 1015.4
20260508072031 5 0.0 0.0 0.00 0.00 0.00 98 1015.5
20260508071017 5 0.0 0.0 0.00 0.00 0.00 99 1015.6
20260508070020 5 0.0 0.0 0.00 0.00 0.00 99 1015.6
20260508065024 5 0.0 0.0 0.00 0.00 0.00 99 1015.4
20260508064108 4 0.0 0.0 0.00 0.00 0.00 99 1015.2
20260508063025 4 0.0 0.0 0.00 0.00 0.00 99 1015.1
20260508062017 4 0.0 0.0 0.00 0.00 0.00 99 1015.1
20260508061020 4 0.0 0.0 0.00 0.00 0.00 99 1015.1
20260508060018 4 0.0 0.0 0.00 0.00 0.00 99 1015.1
20260508055016 4 0.0 0.0 0.00 0.00 0.00 98 1015.1
20260508054031 3 0.0 0.0 0.00 0.00 0.00 97 1015.4
20260508053017 3 0.0 0.0 0.00 0.00 0.00 97 1015.4
20260508052020 3 0.0 0.0 0.00 0.00 0.00 97 1015.5
20260508051024 3 0.0 0.0 0.00 0.00 0.00 95 1015.6
20260508050028 3 0.0 0.0 0.00 0.00 0.00 95 1015.6
20260508045031 3 0.0 0.0 0.00 0.00 0.00 95 1015.6
20260508044037 3 0.0 0.0 0.00 0.00 0.00 97 1015.4
20260508043020 4 0.0 0.0 0.00 0.00 0.00 96 1015.5
20260508042044 4 0.0 0.0 0.00 0.00 0.00 95 1015.6
20260508041028 4 0.0 0.0 0.00 0.00 0.00 94 1015.4
20260508040031 4 0.0 0.0 0.00 0.00 0.00 92 1015.4
20260508035017 4 0.0 0.0 0.00 0.00 0.00 88 1015.2
20260508034020 5 0.0 0.0 0.00 0.00 0.00 89 1015.4
20260508033024 5 0.0 0.0 0.00 0.00 0.00 89 1015.3
20260508032027 5 0.0 0.0 0.00 0.00 0.00 85 1015.3
20260508031031 5 0.0 0.0 0.00 0.00 0.00 85 1015.4
20260508030017 5 0.0 0.0 0.00 0.00 0.00 82 1015.4
20260508025040 5 0.0 0.0 0.00 0.00 0.00 81 1015.4
20260508024024 6 0.0 0.0 0.00 0.00 0.00 80 1015.4
20260508023027 6 0.0 0.0 0.00 0.00 0.00 80 1015.3
20260508022025 6 0.0 0.0 0.00 0.00 0.00 78 1015.2
20260508021036 7 0.0 0.0 0.00 0.00 0.00 76 1015.2
20260508020020 7 0.0 0.0 0.00 0.00 0.00 76 1015.2
20260508015018 7 0.0 0.0 0.00 0.00 0.00 71 1015.0
20260508014016 7 0.0 0.0 0.00 0.00 0.00 69 1015.0
20260508013031 8 0.0 0.0 0.00 0.00 0.00 67 1014.9
20260508012017 8 0.0 0.0 0.00 0.00 0.00 64 1014.8
20260508011020 9 0.0 0.0 0.00 0.00 0.00 61 1014.6
20260508010024 10 0.0 0.0 0.00 0.00 0.00 58 1014.5
20260508005027 11 0.0 0.0 0.00 0.00 0.00 55 1014.6
20260508004031 11 0.0 0.0 0.00 0.00 0.00 54 1014.5
20260508003036 12 0.0 0.0 0.00 0.00 0.00 50 1014.5
20260508002020 13 77 1.6 4.8 0.00 0.00 0.00 47 1014.4
20260508001023 13 225 0.0 1.6 0.00 0.00 0.00 46 1014.3
20260508000027 13 235 1.6 4.8 0.00 0.00 0.00 44 1014.2
20260507235031 13 155 4.8 8.0 0.00 0.00 0.00 44 1014.1
20260507234016 14 195 4.8 8.0 0.00 0.00 0.00 43 1013.9
20260507233020 15 327 1.6 3.2 0.00 0.00 0.00 43 1013.9
20260507232024 15 350 3.2 6.4 0.00 0.00 0.00 43 1013.9
20260507231027 15 82 3.2 8.0 0.00 0.00 0.00 43 1014.0
20260507230030 14 277 3.2 6.4 0.00 0.00 0.00 45 1014.2
20260507225016 15 212 4.8 6.4 0.00 0.00 0.00 42 1014.2
20260507224020 15 282 6.4 11.3 0.00 0.00 0.00 41 1014.2
20260507223023 16 251 6.4 12.9 0.00 0.00 0.00 39 1014.1
20260507222027 16 6 3.2 8.0 0.00 0.00 0.00 42 1014.1
20260507221025 15 112 4.8 11.3 0.00 0.00 0.00 44 1014.1
20260507220016 16 276 4.8 6.4 0.00 0.00 0.00 41 1013.9
20260507215020 17 268 8.0 11.3 0.00 0.00 0.00 41 1013.8
20260507214018 17 274 6.4 12.9 0.00 0.00 0.00 40 1013.8
20260507213016 17 153 8.0 12.9 0.00 0.00 0.00 41 1013.6
20260507212031 17 217 8.0 11.3 0.00 0.00 0.00 41 1013.5
20260507211016 16 256 8.0 12.9 0.00 0.00 0.00 43 1013.4
20260507210020 17 307 6.4 11.3 0.00 0.00 0.00 43 1013.3
20260507205023 17 239 8.0 11.3 0.00 0.00 0.00 43 1013.2
20260507204027 17 170 6.4 12.9 0.00 0.00 0.00 42 1013.3
20260507203031 17 57 6.4 9.7 0.00 0.00 0.00 42 1013.2
20260507202016 18 163 6.4 9.7 0.00 0.00 0.00 40 1013.2
20260507201020 18 124 4.8 9.7 0.00 0.00 0.00 39 1013.1
20260507200043 17 296 4.8 8.0 0.00 0.00 0.00 42 1013.3
20260507195027 18 248 6.4 11.3 0.00 0.00 0.00 40 1013.3
20260507194031 18 74 4.8 11.3 0.00 0.00 0.00 40 1013.4
20260507193016 18 343 3.2 8.0 0.00 0.00 0.00 38 1013.3
20260507192040 18 208 4.8 9.7 0.00 0.00 0.00 38 1013.3
20260507191024 18 257 4.8 8.0 0.00 0.00 0.00 37 1013.4
20260507190047 18 142 8.0 12.9 0.00 0.00 0.00 37 1013.5
20260507185031 19 230 6.4 11.3 0.00 0.00 0.00 37 1013.6
20260507184016 18 211 6.4 12.9 0.00 0.00 0.00 37 1013.5
20260507183019 18 254 4.8 9.7 0.00 0.00 0.00 39 1013.5
20260507182043 19 195 6.4 14.5 0.00 0.00 0.00 40 1013.6
20260507181027 18 235 6.4 11.3 0.00 0.00 0.00 39 1013.7
20260507180024 19 230 8.0 11.3 0.00 0.00 0.00 39 1013.7
20260507175036 18 214 4.8 8.0 0.00 0.00 0.00 41 1013.9
20260507174020 17 76 4.8 9.7 0.00 0.00 0.00 41 1013.8
20260507173017 17 90 4.8 6.4 0.00 0.00 0.00 42 1014.0
20260507172027 18 199 6.4 9.7 0.00 0.00 0.00 40 1014.1
20260507171030 18 19 4.8 8.0 0.00 0.00 0.00 39 1014.2
20260507170016 18 162 4.8 9.7 0.00 0.00 0.00 41 1014.2
20260507165019 18 247 6.4 9.7 0.00 0.00 0.00 41 1014.3
20260507164023 17 344 6.4 12.9 0.00 0.00 0.00 41 1014.3
20260507163026 18 223 4.8 6.4 0.00 0.00 0.00 42 1014.4
20260507162050 17 221 6.4 8.0 0.00 0.00 0.00 42 1014.4
20260507161015 17 286 6.4 14.5 0.00 0.00 0.00 42 1014.3
20260507160019 17 167 4.8 8.0 0.00 0.00 0.00 42 1014.2
20260507155022 17 263 4.8 9.7 0.00 0.00 0.00 44 1014.3
20260507154026 17 264 6.4 12.9 0.00 0.00 0.00 44 1014.3
20260507153030 17 242 4.8 11.3 0.00 0.00 0.00 44 1014.3
20260507152015 17 210 4.8 9.7 0.00 0.00 0.00 45 1014.4
20260507151019 16 238 6.4 9.7 0.00 0.00 0.00 45 1014.4
20260507150043 16 224 4.8 8.0 0.00 0.00 0.00 46 1014.6
20260507145026 15 336 4.8 9.7 0.00 0.00 0.00 45 1014.6
20260507144030 16 253 6.4 9.7 0.00 0.00 0.00 45 1014.7
20260507143015 16 271 3.2 4.8 0.00 0.00 0.00 51 1014.8
20260507142019 15 208 4.8 9.7 0.00 0.00 0.00 55 1015.0
20260507141023 15 207 3.2 6.4 0.00 0.00 0.00 59 1015.1
20260507140026 14 256 3.2 8.0 0.00 0.00 0.00 61 1015.2
20260507135024 13 225 3.2 6.4 0.00 0.00 0.00 65 1015.4
20260507134035 13 269 3.2 6.4 0.00 0.00 0.00 69 1015.4
20260507133018 13 213 3.2 6.4 0.00 0.00 0.00 71 1015.4
20260507132016 12 149 1.6 4.8 0.00 0.00 0.00 74 1015.4
20260507131026 12 193 1.6 4.8 0.00 0.00 0.00 75 1015.4
20260507130030 11 302 1.6 3.2 0.00 0.00 0.00 78 1015.4
20260507125015 10 226 1.6 6.4 0.00 0.00 0.00 83 1015.4
20260507124019 8 0.0 0.0 0.00 0.00 0.00 89 1015.4
20260507123043 7 0.0 0.0 0.00 0.00 0.00 94 1015.5
20260507122026 6 0.0 0.0 0.00 0.00 0.00 98 1015.5
20260507121030 5 0.0 0.0 0.00 0.00 0.00 99 1015.4
20260507120015 5 0.0 0.0 0.00 0.00 0.00 99 1015.4
20260507115019 4 0.0 0.0 0.00 0.00 0.00 99 1015.4
20260507114102 3 0.0 0.0 0.00 0.00 0.00 99 1015.4
20260507113046 3 0.0 0.0 0.00 0.03 0.00 99 1015.3
20260507112029 3 0.0 0.0 0.00 0.03 0.00 99 1015.2
20260507111015 2 0.0 0.0 0.00 0.03 0.00 99 1015.2
20260507110019 2 0.0 0.0 0.00 0.03 0.00 99 1015.0
20260507105022 2 0.0 0.0 0.00 0.03 0.00 99 1015.0
20260507104026 1 0.0 0.0 0.00 0.03 0.00 99 1014.9
20260507103029 1 0.0 0.0 0.00 0.03 0.00 99 1014.9
20260507102015 2 0.0 0.0 0.00 0.03 0.00 99 1014.9
20260507101018 2 0.0 0.0 0.00 0.03 0.00 99 1014.9